STARLINK-31019, 58540

Orbit data source: Space-Track

STARLINK-31019, 58540 is a payload satellite owned by SpaceX/Seattle (US) in LEO that was launched on Fri, 08 Dec 2023 UTC via an FALCON 9 launch vehicle from the Air Force Western Test Range (AFWTR). Payload-class satellites include a variety of spacecraft equipped with specific instruments for various scientific and technological missions. These include communications satellites like Starlink; space stations such as the ISS; scientific satellites like the Hubble; Earth observation satellites from companies like Planet Labs, Umbra, and HawkEye 360; GPS; miniature CubeSats for education and research; and military/defense satellites.

Loading next visibility...
Identifier
58540, 2023-192K
Orbit
LEO
Country
Flag of USUS
Related business
Manufacturer
SpaceX/Seattle
Mission
Operational Commercial Communications
Bus & Motor
STARLINK V2M, Unknown motor
Mass
730 kg wet, ~700 kg dry
Launch date (UTC)
2023-12-08 (3 years ago)
Launch vehicle
FALCON 9
Launch site
Air Force Western Test Range (AFWTR)
Object type
Payload
Rocket body
Debris
Shape & HBR
Box + 2 Pan, 17.7 m
Radar Cross Section
33.884 m², Large (>1 m²)

Expand to show TLE details & history
Last TLE update: 3 days ago

TLE from 3 days ago
0 STARLINK-31019
1 58540U 23192K   26170.65067846  .00001396  00000-0  52459-4 0  9995
2 58540  53.1593 307.8932 0000718  94.2600 265.8485 15.34388940141615
Epoch: 2026-06-19T15:36Z
TLE epoch observation values (Epoch: 2026-06-19T15:36:58.618Z)
Latitude
-0.00002°
Longitude
165.77234°
Altitude
463.673 km
Speed
7.636 km/s
True Right ascension
20h 31m 34s
True Declination
0° 00' 00"
Sunlit
Object was in full shadow at epoch
Visualization orbit readout
Latitude
Unknown
Longitude
Unknown
Altitude
Unknown
Speed
Unknown
Apparent Right ascension
Unknown
Apparent Declination
Unknown
Sunlit
N/A
Visualization observer readout
Local Sidereal Time
21:27:04
Azimuth
Unknown
Elevation
Unknown
Doppler factor
Unknown
Orbital elements
Apogee altitude
463.484 km
Perigee altitude
462.502 km
Semi-major axis
6,841.13 km
Eccentricity
0.00007
Inclination
53.1593°
RAAN
307.8932°
Arg. of periapsis
94.26°
True anomaly
265.84029°
Mean anomaly
265.8485°
Eccentric anomaly
265.8444°
Mean motion
3.83576 °/min
Orbital period
93.85 mins
BSTAR
0.000052459
Loading maneuver chart data...
Computing Atmospheric mass density...
Loading historical data...
Loading historical data...
Loading historical data...
Loading historical data...
Loading historical data...
Loading historical data...
Loading historical data...

Documentation

Showing up to 5 results
|